Weather History for Lakeview AWS, OR

Change the Weather History Date:

Tuesday, November 20, 2012

  Actual Average Record
Temperature  
Mean Temperature 45 °F -  
Max Temperature 51 °F 44 °F 75 °F (1936)
Min Temperature 39 °F 23 °F 1 °F (1977)
Degree Days  
Heating Degree Days 20    
Moisture  
Dew Point 39 °F    
Average Humidity 80    
Maximum Humidity 93    
Minimum Humidity 62    
Precipitation  
Precipitation 0.08 in - - ()
Sea Level Pressure  
Sea Level Pressure 29.88 in    
Wind  
Wind Speed 19 mph (South)    
Max Wind Speed 28 mph    
Max Gust Speed 46 mph    
Visibility 10 miles    
Events      
Averages and records for this station are not official NWS values.
T = Trace of Precipitation, MM = Missing Value Source: NWS Daily Summary

Daily Weather History Graph

Daily Weather History Graph

Search for Another Location

Airport:

Trip Planner

Search our weather history database for the weather conditions in past years. The results will help you decide how hot, cold, wet, or windy it might be!

Date:

Astronomy

Nov. 20, 2012 Rise Set
Actual Time 6:58 AM PST 4:35 PM PST
Civil Twilight 6:28 AM PST 5:06 PM PST
Nautical Twilight 5:53 AM PST 5:40 PM PST
Astronomical Twilight 5:20 AM PST 6:13 PM PST
Moon 12:31 PM PST (11/20) No Moon Set
Length of Visible Light 10h 38m
Length of Day
9h 37m
First Quarter, 52% of the Moon is Illuminated
Nov 20
First Quarter
Nov 28
Full
Dec 6
Last Quarter
Dec 13
New
Dec 19
First Quarter

Hourly Weather History & Observations

Time (PST) Temp. Windchill Dew Point Humidity Pressure Visibility Wind Dir Wind Speed Gust Speed Precip Events Conditions
12:15 AM 44.6 °F 36.6 °F 35.6 °F 71% 29.99 in 10.0 mi South 19.6 mph 27.6 mph N/A   Overcast
12:35 AM 44.6 °F 35.9 °F 35.6 °F 71% 29.99 in 10.0 mi South 23.0 mph 32.2 mph N/A   Overcast
12:55 AM 44.6 °F 35.7 °F 35.6 °F 71% 29.98 in 10.0 mi South 24.2 mph 33.4 mph N/A   Overcast
1:15 AM 44.6 °F 35.9 °F 35.6 °F 71% 29.97 in 10.0 mi SSE 23.0 mph 35.7 mph N/A   Overcast
1:35 AM 44.6 °F 36.1 °F 35.6 °F 71% 29.97 in 10.0 mi SSE 21.9 mph 36.8 mph N/A   Overcast
1:55 AM 44.6 °F 35.5 °F 35.6 °F 71% 29.96 in 10.0 mi SSE 25.3 mph 34.5 mph N/A   Overcast
2:15 AM 44.6 °F 35.7 °F 35.6 °F 71% 29.96 in 10.0 mi SSE 24.2 mph 38.0 mph N/A   Overcast
2:35 AM 44.6 °F 36.9 °F 35.6 °F 71% 29.97 in 10.0 mi South 18.4 mph 31.1 mph N/A   Overcast
2:55 AM 44.6 °F 37.8 °F 35.6 °F 71% 29.97 in 10.0 mi South 15.0 mph 21.9 mph N/A   Overcast
3:15 AM 44.6 °F 37.4 °F 35.6 °F 71% 29.96 in 10.0 mi South 16.1 mph 23.0 mph N/A   Overcast
3:35 AM 44.6 °F 36.4 °F 35.6 °F 71% 29.94 in 10.0 mi SSE 20.7 mph 31.1 mph N/A   Overcast
3:55 AM 44.6 °F 37.4 °F 37.4 °F 76% 29.94 in 10.0 mi SSE 16.1 mph 27.6 mph N/A   Overcast
4:15 AM 44.6 °F 36.9 °F 37.4 °F 76% 29.93 in 10.0 mi SSE 18.4 mph 26.5 mph N/A   Overcast
4:35 AM 44.6 °F 36.4 °F 37.4 °F 76% 29.93 in 10.0 mi SSE 20.7 mph 31.1 mph N/A   Overcast
4:55 AM 44.6 °F 36.6 °F 37.4 °F 76% 29.93 in 10.0 mi South 19.6 mph 25.3 mph N/A   Overcast
5:15 AM 44.6 °F 35.7 °F 37.4 °F 76% 29.92 in 10.0 mi SSE 24.2 mph 28.8 mph N/A   Overcast
5:35 AM 44.6 °F 36.4 °F 37.4 °F 76% 29.93 in 10.0 mi South 20.7 mph 28.8 mph N/A   Overcast
5:55 AM 44.6 °F 38.4 °F 37.4 °F 76% 29.93 in 10.0 mi South 12.7 mph 23.0 mph N/A   Overcast
6:15 AM 44.6 °F 36.6 °F 37.4 °F 76% 29.92 in 10.0 mi South 19.6 mph 25.3 mph N/A   Overcast
6:35 AM 42.8 °F 36.2 °F 37.4 °F 81% 29.92 in 10.0 mi South 12.7 mph 21.9 mph N/A   Overcast
6:55 AM 42.8 °F 35.1 °F 39.2 °F 87% 29.91 in 10.0 mi South 16.1 mph 24.2 mph N/A   Overcast
7:15 AM 42.8 °F 35.8 °F 39.2 °F 87% 29.91 in 10.0 mi South 13.8 mph - N/A   Overcast
7:35 AM 42.8 °F 34.8 °F 39.2 °F 87% 29.90 in 10.0 mi South 17.3 mph 24.2 mph N/A   Overcast
7:55 AM 44.6 °F 36.4 °F 39.2 °F 81% 29.89 in 10.0 mi South 20.7 mph 32.2 mph N/A   Overcast
8:15 AM 44.6 °F 36.9 °F 39.2 °F 81% 29.89 in 10.0 mi South 18.4 mph 29.9 mph N/A   Overcast
8:35 AM 44.6 °F 35.5 °F 39.2 °F 81% 29.89 in 10.0 mi South 25.3 mph 36.8 mph N/A   Overcast
8:55 AM 44.6 °F 37.4 °F 39.2 °F 81% 29.89 in 10.0 mi South 16.1 mph 31.1 mph N/A   Overcast
9:15 AM 44.6 °F 35.7 °F 39.2 °F 81% 29.90 in 10.0 mi South 24.2 mph 33.4 mph N/A   Overcast
9:35 AM 44.6 °F 36.9 °F 39.2 °F 81% 29.90 in 10.0 mi South 18.4 mph 27.6 mph N/A   Overcast
9:55 AM 44.6 °F 36.4 °F 42.8 °F 93% 29.90 in 10.0 mi South 20.7 mph 25.3 mph N/A   Overcast
10:15 AM 44.6 °F 36.4 °F 42.8 °F 93% 29.90 in 10.0 mi South 20.7 mph 27.6 mph N/A   Overcast
10:35 AM 44.6 °F 37.2 °F 42.8 °F 93% 29.89 in 10.0 mi South 17.3 mph 24.2 mph N/A   Overcast
10:55 AM 46.4 °F 39.2 °F 42.8 °F 87% 29.90 in 10.0 mi South 18.4 mph 29.9 mph N/A   Overcast
11:15 AM 46.4 °F 39.2 °F 42.8 °F 87% 29.90 in 10.0 mi South 18.4 mph 25.3 mph N/A   Mostly Cloudy
11:35 AM 46.4 °F 40.4 °F 42.8 °F 87% 29.89 in 10.0 mi South 13.8 mph 24.2 mph N/A   Overcast
11:55 AM 48.2 °F - 42.8 °F 82% 29.88 in 10.0 mi South 16.1 mph 20.7 mph N/A   Mostly Cloudy
12:15 PM 48.2 °F - 42.8 °F 82% 29.88 in 10.0 mi South 21.9 mph 29.9 mph N/A   Overcast
12:35 PM 50.0 °F - 42.8 °F 76% 29.88 in 10.0 mi SSW 26.5 mph 32.2 mph N/A   Overcast
12:55 PM 51.8 °F - 39.2 °F 62% 29.87 in 10.0 mi SSW 25.3 mph 33.4 mph N/A   Partly Cloudy
1:15 PM 51.8 °F - 39.2 °F 62% 29.88 in 10.0 mi SSW 25.3 mph 46.0 mph N/A   Mostly Cloudy
1:35 PM 51.8 °F - 39.2 °F 62% 29.87 in 10.0 mi SSW 26.5 mph 36.8 mph N/A   Mostly Cloudy
1:55 PM 50.0 °F - 39.2 °F 66% 29.87 in 10.0 mi SSW 27.6 mph 36.8 mph N/A   Mostly Cloudy
2:15 PM 50.0 °F - 39.2 °F 66% 29.87 in 10.0 mi South 21.9 mph 33.4 mph N/A   Mostly Cloudy
2:35 PM 48.2 °F - 39.2 °F 71% 29.86 in 10.0 mi South 19.6 mph 27.6 mph N/A   Overcast
2:55 PM 48.2 °F - 39.2 °F 71% 29.87 in 10.0 mi South 20.7 mph 28.8 mph N/A   Overcast
3:15 PM 48.2 °F - 37.4 °F 66% 29.87 in 10.0 mi South 21.9 mph 29.9 mph N/A   Overcast
3:35 PM 48.2 °F - 37.4 °F 66% 29.87 in 10.0 mi South 23.0 mph 35.7 mph N/A   Overcast
3:55 PM 48.2 °F - 37.4 °F 66% 29.88 in 10.0 mi South 19.6 mph 29.9 mph N/A   Overcast
4:15 PM 46.4 °F 39.8 °F 39.2 °F 76% 29.87 in 10.0 mi South 16.1 mph - N/A   Overcast
4:35 PM 44.6 °F 37.8 °F 39.2 °F 81% 29.87 in 10.0 mi SSW 15.0 mph 23.0 mph N/A   Overcast
4:55 PM 44.6 °F 39.2 °F 41.0 °F 87% 29.87 in 10.0 mi SSW 10.4 mph - N/A   Overcast
5:15 PM 44.6 °F 40.2 °F 41.0 °F 87% 29.85 in 10.0 mi SSW 8.1 mph - N/A   Overcast
5:35 PM 44.6 °F 39.7 °F 41.0 °F 87% 29.85 in 10.0 mi South 9.2 mph - N/A   Overcast
5:55 PM 44.6 °F 40.2 °F 41.0 °F 87% 29.84 in 10.0 mi South 8.1 mph - N/A   Overcast
6:15 PM 42.8 °F 38.0 °F 41.0 °F 93% 29.85 in 10.0 mi SSW 8.1 mph - N/A   Overcast
6:35 PM 42.8 °F 35.8 °F 41.0 °F 93% 29.84 in 10.0 mi SW 13.8 mph 18.4 mph N/A   Overcast
6:55 PM 42.8 °F 36.6 °F 39.2 °F 87% 29.85 in 10.0 mi WSW 11.5 mph - N/A   Overcast
7:15 PM 42.8 °F 37.5 °F 39.2 °F 87% 29.84 in 10.0 mi SSW 9.2 mph - N/A   Overcast
7:35 PM 42.8 °F 35.4 °F 39.2 °F 87% 29.84 in 10.0 mi SSW 15.0 mph 19.6 mph N/A   Overcast
7:55 PM 42.8 °F 38.0 °F 39.2 °F 87% 29.84 in 10.0 mi WSW 8.1 mph - 0.03 in   Overcast
8:15 PM 41.0 °F 35.2 °F 37.4 °F 87% 29.84 in 10.0 mi West 9.2 mph - N/A   Overcast
8:35 PM 39.2 °F 35.0 °F 37.4 °F 93% 29.83 in 5.0 mi WSW 5.8 mph - 0.01 in   Overcast
8:55 PM 39.2 °F 35.9 °F 37.4 °F 93% 29.82 in 8.0 mi South 4.6 mph - 0.02 in   Overcast
9:15 PM 39.2 °F 33.6 °F 37.4 °F 93% 29.81 in 10.0 mi SSW 8.1 mph - N/A   Overcast
9:35 PM 42.8 °F 34.0 °F 39.2 °F 87% 29.81 in 8.0 mi South 20.7 mph 28.8 mph N/A   Overcast
9:55 PM 42.8 °F 34.5 °F 39.2 °F 87% 29.80 in 6.0 mi South 18.4 mph 33.4 mph N/A   Overcast
10:15 PM 42.8 °F 34.3 °F 39.2 °F 87% 29.81 in 9.0 mi SW 19.6 mph 26.5 mph 0.01 in   Overcast
10:35 PM 42.8 °F 35.8 °F 39.2 °F 87% 29.80 in 10.0 mi SW 13.8 mph 23.0 mph 0.02 in   Mostly Cloudy
10:55 PM 41.0 °F 32.8 °F 39.2 °F 93% 29.79 in 10.0 mi SSW 16.1 mph 23.0 mph 0.03 in   Overcast
11:15 PM 42.8 °F 35.8 °F 39.2 °F 87% 29.78 in 10.0 mi South 13.8 mph - N/A   Overcast
11:35 PM 42.8 °F 35.4 °F 39.2 °F 87% 29.78 in 10.0 mi South 15.0 mph 19.6 mph N/A   Overcast
11:55 PM 42.8 °F 34.5 °F 39.2 °F 87% 29.77 in 10.0 mi South 18.4 mph 27.6 mph N/A   Mostly Cloudy